Weather History for Walnut Ridge, AR

Change the Weather History Date:

Wednesday, December 12, 2012

  Actual Average Record
Temperature  
Mean Temperature 35 °F -  
Max Temperature 46 °F 46 °F 66 °F (2006)
Min Temperature 24 °F 32 °F 12 °F (2000)
Degree Days  
Heating Degree Days 30    
Moisture  
Dew Point 29 °F    
Average Humidity 78    
Maximum Humidity 100    
Minimum Humidity 50    
Precipitation  
Precipitation 0.00 in - - ()
Sea Level Pressure  
Sea Level Pressure 30.35 in    
Wind  
Wind Speed 3 mph (South)    
Max Wind Speed 7 mph    
Max Gust Speed -    
Visibility 8 miles    
Events      
Averages and records for this station are not official NWS values.
T = Trace of Precipitation, MM = Missing Value Source: NWS Daily Summary

Daily Weather History Graph

Daily Weather History Graph

Search for Another Location

Airport:

Trip Planner

Search our weather history database for the weather conditions in past years. The results will help you decide how hot, cold, wet, or windy it might be!

Date:

Astronomy

Dec. 12, 2012 Rise Set
Actual Time 7:05 AM CST 4:49 PM CST
Civil Twilight 6:37 AM CST 5:18 PM CST
Nautical Twilight 6:04 AM CST 5:50 PM CST
Astronomical Twilight 5:33 AM CST 6:21 PM CST
Moon 6:10 AM CST (12/12) 4:26 PM CST (12/12)
Length of Visible Light 10h 41m
Length of Day
9h 44m
Waning Crescent, 1% of the Moon is Illuminated
Dec 12
Waning Crescent
Dec 13
New
Dec 19
First Quarter
Dec 28
Full
Jan 4
Last Quarter

Hourly Weather History & Observations

Time (CST) Temp. Windchill Dew Point Humidity Pressure Visibility Wind Dir Wind Speed Gust Speed Precip Events Conditions
12:15 AM 30.2 °F 25.4 °F 28.4 °F 93% 30.29 in 6.0 mi South 4.6 mph - N/A   Clear
12:35 AM 30.2 °F 25.4 °F 26.6 °F 86% 30.29 in 7.0 mi South 4.6 mph - N/A   Clear
12:56 AM 28.4 °F 24.6 °F 26.6 °F 93% 30.29 in 10.0 mi South 3.5 mph - N/A   Clear
1:15 AM 28.4 °F 22.2 °F 28.4 °F 100% 30.29 in 7.0 mi South 5.8 mph - N/A   Clear
1:35 AM 30.2 °F 25.4 °F 28.4 °F 93% 30.29 in 10.0 mi South 4.6 mph - N/A   Clear
2:15 AM 30.2 °F - 26.6 °F 86% 30.29 in 10.0 mi Calm Calm - N/A   Clear
2:35 AM 28.4 °F - 26.6 °F 93% 30.30 in 10.0 mi Calm Calm - N/A   Clear
2:55 AM 28.4 °F 24.6 °F 26.6 °F 93% 30.30 in 10.0 mi NW 3.5 mph - N/A   Clear
3:15 AM 28.4 °F 24.6 °F 26.6 °F 93% 30.30 in 9.0 mi NW 3.5 mph - N/A   Clear
3:35 AM 28.4 °F - 26.6 °F 93% 30.30 in 8.0 mi Calm Calm - N/A   Clear
3:55 AM 28.4 °F - 26.6 °F 93% 30.30 in 5.0 mi Calm Calm - N/A   Clear
4:35 AM 28.4 °F - 26.6 °F 93% 30.31 in 5.0 mi Calm Calm - N/A   Clear
5:35 AM 28.4 °F - 26.6 °F 93% 30.32 in 5.0 mi Calm Calm - N/A   Clear
5:55 AM 28.4 °F - 26.6 °F 93% 30.33 in 5.0 mi Calm Calm - N/A   Clear
6:35 AM 24.8 °F 19.1 °F 23.0 °F 93% 30.35 in 5.0 mi NW 4.6 mph - N/A   Clear
7:15 AM 26.6 °F - 26.6 °F 100% 30.35 in 7.0 mi Calm Calm - N/A   Clear
7:36 AM 26.6 °F - 26.6 °F 100% 30.36 in 5.0 mi Calm Calm - N/A   Clear
7:55 AM 26.6 °F 22.6 °F 26.6 °F 100% 30.38 in 7.0 mi NNW 3.5 mph - N/A   Clear
8:15 AM 28.4 °F - 28.4 °F 100% 30.38 in 7.0 mi Calm Calm - N/A   Clear
8:55 AM 30.2 °F - 28.4 °F 93% 30.38 in 7.0 mi Calm Calm - N/A   Clear
9:15 AM 32.0 °F - 30.2 °F 93% 30.39 in 7.0 mi Calm Calm - N/A   Clear
9:55 AM 35.6 °F - 30.2 °F 81% 30.41 in 10.0 mi Calm Calm - N/A   Clear
10:55 AM 39.2 °F - 30.2 °F 70% 30.41 in 10.0 mi Calm Calm - N/A   Clear
11:15 AM 39.2 °F 35.9 °F 32.0 °F 75% 30.40 in 10.0 mi SSE 4.6 mph - N/A   Clear
11:35 AM 41.0 °F - 32.0 °F 70% 30.40 in 9.0 mi Calm Calm - N/A   Clear
11:56 AM 42.8 °F 38.6 °F 30.2 °F 61% 30.38 in 10.0 mi SSE 6.9 mph - N/A   Clear
12:15 PM 42.8 °F 39.3 °F 30.2 °F 61% 30.37 in 10.0 mi South 5.8 mph - N/A   Clear
12:35 PM 42.8 °F 40.1 °F 28.4 °F 57% 30.36 in 10.0 mi SSE 4.6 mph - N/A   Clear
12:56 PM 44.6 °F 43.1 °F 30.2 °F 57% 30.36 in 10.0 mi South 3.5 mph - N/A   Clear
1:15 PM 44.6 °F 43.1 °F 28.4 °F 53% 30.35 in 7.0 mi SSE 3.5 mph - N/A   Clear
1:35 PM 46.4 °F 45.2 °F 28.4 °F 50% 30.35 in 10.0 mi ESE 3.5 mph - N/A   Clear
1:55 PM 46.4 °F 43.5 °F 28.4 °F 50% 30.34 in 10.0 mi SE 5.8 mph - N/A   Clear
2:35 PM 46.4 °F 44.3 °F 28.4 °F 50% 30.34 in 10.0 mi South 4.6 mph - N/A   Clear
2:55 PM 46.4 °F 44.3 °F 28.4 °F 50% 30.34 in 9.0 mi South 4.6 mph - N/A   Clear
3:15 PM 46.4 °F 44.3 °F 28.4 °F 50% 30.33 in 4.0 mi SSE 4.6 mph - N/A   Clear
3:35 PM 46.4 °F 43.5 °F 28.4 °F 50% 30.33 in 10.0 mi South 5.8 mph - N/A   Clear
3:56 PM 46.4 °F 44.3 °F 28.4 °F 50% 30.33 in 5.0 mi South 4.6 mph - N/A   Clear
4:15 PM 46.4 °F 44.3 °F 30.2 °F 53% 30.34 in 10.0 mi South 4.6 mph - N/A   Clear
4:35 PM 44.6 °F 42.2 °F 28.4 °F 53% 30.34 in 10.0 mi SSW 4.6 mph - N/A   Clear
5:15 PM 42.8 °F 40.1 °F 33.8 °F 70% 30.34 in 10.0 mi South 4.6 mph - N/A   Clear
5:35 PM 42.8 °F 41.1 °F 30.2 °F 61% 30.36 in 10.0 mi SW 3.5 mph - N/A   Clear
5:55 PM 42.8 °F - 28.4 °F 57% 30.36 in 10.0 mi Calm Calm - N/A   Clear
6:15 PM 41.0 °F 39.0 °F 30.2 °F 65% 30.36 in 10.0 mi South 3.5 mph - N/A   Clear
6:35 PM 39.2 °F 37.0 °F 32.0 °F 75% 30.36 in 0.2 mi SE 3.5 mph - N/A   Unknown
6:55 PM 39.2 °F 37.0 °F 33.8 °F 81% 30.36 in 0.2 mi SSE 3.5 mph - N/A   Unknown
7:35 PM 37.4 °F 32.8 °F 33.8 °F 87% 30.35 in 10.0 mi ESE 5.8 mph - N/A   Clear
7:55 PM 35.6 °F - 32.0 °F 87% 30.36 in 10.0 mi Calm Calm - N/A   Clear
8:15 PM 37.4 °F - 32.0 °F 81% 30.37 in 10.0 mi Calm Calm - N/A   Clear
8:35 PM 37.4 °F - 32.0 °F 81% 30.36 in 10.0 mi Calm Calm - N/A   Clear
8:55 PM 35.6 °F 31.7 °F 32.0 °F 87% 30.36 in 10.0 mi ESE 4.6 mph - N/A   Clear
9:55 PM 33.8 °F - 28.4 °F 81% 30.36 in 10.0 mi Calm Calm - N/A   Clear
10:15 PM 33.8 °F - 28.4 °F 81% 30.36 in 10.0 mi Calm Calm - N/A   Clear
10:35 PM 33.8 °F - 30.2 °F 87% 30.37 in 10.0 mi Calm Calm - N/A   Clear
10:55 PM 32.0 °F - 28.4 °F 87% 30.37 in 10.0 mi Calm Calm - N/A   Clear
11:35 PM 32.0 °F - 28.4 °F 87% 30.36 in 10.0 mi Calm Calm - N/A   Clear